Grub im Wienerwald
Wetterdaten: aktuell Dienstag, 26.09.2017 16:21
Datum Zeit Temp. A. Feuchte A. Luftdruck Regen Wind Richtung Richtung Sonnenschein UV Solar Taupunkt Windchill Windben
26.09.2017 16:21 19,3 C 66 % 1023,1 hPa 0,0 l/m 7,6 km/h S-SO 157 0 min 1,3 UV-I 149 W/m 12,8 C 18,8 C 11,3 km/h
26.09.2017 16:18 19,3 C 68 % 1023,1 hPa 0,0 l/m 3,2 km/h S-SO 152 3 min 1,5 UV-I 323 W/m 13,2 C 19,3 C 8,0 km/h
26.09.2017 16:15 19,4 C 67 % 1023,1 hPa 0,0 l/m 6,9 km/h SO 126 3 min 1,5 UV-I 332 W/m 13,1 C 19,2 C 14,5 km/h
26.09.2017 16:12 19,4 C 67 % 1023,1 hPa 0,0 l/m 3,6 km/h S-SO 148 3 min 1,6 UV-I 343 W/m 13,1 C 19,4 C 9,7 km/h
26.09.2017 16:09 19,4 C 65 % 1023,1 hPa 0,0 l/m 7,0 km/h O-SO 123 3 min 1,6 UV-I 352 W/m 12,6 C 19,1 C 11,3 km/h
26.09.2017 16:06 19,5 C 68 % 1023,1 hPa 0,0 l/m 2,5 km/h S-SO 152 3 min 1,7 UV-I 360 W/m 13,4 C 19,5 C 9,7 km/h
26.09.2017 16:03 19,5 C 69 % 1023,1 hPa 0,0 l/m 3,4 km/h S-SO 152 3 min 1,7 UV-I 366 W/m 13,7 C 19,5 C 8,0 km/h
26.09.2017 16:00 19,5 C 68 % 1023,1 hPa 0,0 l/m 5,9 km/h SO 144 3 min 1,7 UV-I 373 W/m 13,4 C 19,5 C 11,3 km/h
26.09.2017 15:57 19,4 C 67 % 1023,1 hPa 0,0 l/m 8,4 km/h O-SO 117 3 min 1,9 UV-I 371 W/m 13,1 C 18,6 C 12,9 km/h
26.09.2017 15:54 19,4 C 69 % 1023,1 hPa 0,0 l/m 6,8 km/h S-SW 197 3 min 1,9 UV-I 383 W/m 13,6 C 19,2 C 16,1 km/h
26.09.2017 15:51 19,4 C 70 % 1023,1 hPa 0,0 l/m 5,5 km/h O-SO 122 3 min 1,9 UV-I 390 W/m 13,8 C 19,4 C 11,3 km/h
26.09.2017 15:48 19,5 C 68 % 1023,1 hPa 0,0 l/m 8,3 km/h O-SO 121 3 min 2,0 UV-I 390 W/m 13,4 C 18,7 C 16,1 km/h
26.09.2017 15:45 19,6 C 67 % 1023,1 hPa 0,0 l/m 2,8 km/h O-NO 70 3 min 2,0 UV-I 408 W/m 13,3 C 19,6 C 8,0 km/h
26.09.2017 15:42 19,6 C 71 % 1023,2 hPa 0,0 l/m 4,6 km/h SO 133 3 min 2,1 UV-I 417 W/m 14,2 C 19,6 C 9,7 km/h
26.09.2017 15:39 19,4 C 70 % 1023,2 hPa 0,0 l/m 5,9 km/h S-SW 196 3 min 2,1 UV-I 420 W/m 13,8 C 19,4 C 14,5 km/h
26.09.2017 15:36 19,3 C 68 % 1023,2 hPa 0,0 l/m 8,7 km/h SO 135 3 min 2,2 UV-I 411 W/m 13,2 C 18,3 C 17,7 km/h
26.09.2017 15:33 19,3 C 69 % 1023,1 hPa 0,0 l/m 4,1 km/h SO 142 3 min 2,2 UV-I 415 W/m 13,5 C 19,3 C 11,3 km/h
26.09.2017 15:30 19,3 C 68 % 1023,1 hPa 0,0 l/m 6,0 km/h S-SO 163 3 min 2,2 UV-I 388 W/m 13,2 C 19,3 C 14,5 km/h
26.09.2017 15:27 19,3 C 71 % 1023,1 hPa 0,0 l/m 7,9 km/h S-SW 201 3 min 2,3 UV-I 432 W/m 13,9 C 18,7 C 16,1 km/h
26.09.2017 15:24 19,2 C 70 % 1023,1 hPa 0,0 l/m 6,9 km/h S 178 3 min 2,4 UV-I 461 W/m 13,6 C 19,0 C 14,5 km/h
26.09.2017 15:21 19,2 C 69 % 1023,1 hPa 0,0 l/m 8,1 km/h S 191 3 min 2,4 UV-I 461 W/m 13,4 C 18,5 C 12,9 km/h
26.09.2017 15:18 19,1 C 70 % 1023,2 hPa 0,0 l/m 9,5 km/h S-SW 197 3 min 2,5 UV-I 475 W/m 13,5 C 17,8 C 16,1 km/h
26.09.2017 15:15 19,2 C 68 % 1023,2 hPa 0,0 l/m 10,4 km/h S 172 3 min 2,5 UV-I 478 W/m 13,1 C 17,6 C 16,1 km/h
26.09.2017 15:12 19,3 C 68 % 1023,2 hPa 0,0 l/m 5,7 km/h S 171 3 min 2,6 UV-I 485 W/m 13,2 C 19,3 C 12,9 km/h
26.09.2017 15:09 19,3 C 70 % 1023,2 hPa 0,0 l/m 8,2 km/h O-SO 121 3 min 2,6 UV-I 501 W/m 13,7 C 18,5 C 22,5 km/h
26.09.2017 15:06 19,3 C 70 % 1023,2 hPa 0,0 l/m 6,2 km/h S-SO 163 3 min 2,7 UV-I 519 W/m 13,7 C 19,3 C 12,9 km/h
26.09.2017 15:03 19,2 C 72 % 1023,3 hPa 0,0 l/m 6,3 km/h SO 136 3 min 2,8 UV-I 536 W/m 14,0 C 19,2 C 12,9 km/h
26.09.2017 15:00 18,9 C 71 % 1023,3 hPa 0,0 l/m 7,6 km/h SO 140 3 min 2,8 UV-I 575 W/m 13,5 C 18,4 C 16,1 km/h
26.09.2017 14:57 18,7 C 72 % 1023,2 hPa 0,0 l/m 7,7 km/h S 178 3 min 2,9 UV-I 599 W/m 13,5 C 18,1 C 14,5 km/h
26.09.2017 14:54 18,6 C 72 % 1023,3 hPa 0,0 l/m 8,9 km/h S 179 3 min 3,1 UV-I 615 W/m 13,4 C 17,5 C 14,5 km/h
26.09.2017 14:51 18,3 C 74 % 1023,3 hPa 0,0 l/m 7,1 km/h S-SO 163 3 min 3,1 UV-I 629 W/m 13,6 C 18,0 C 14,5 km/h
26.09.2017 14:48 18,2 C 73 % 1023,3 hPa 0,0 l/m 3,5 km/h S-SO 147 3 min 2,7 UV-I 443 W/m 13,3 C 18,2 C 11,3 km/h
26.09.2017 14:45 18,3 C 72 % 1023,4 hPa 0,0 l/m 5,4 km/h O-SO 112 3 min 2,5 UV-I 348 W/m 13,2 C 18,3 C 12,9 km/h
26.09.2017 14:42 18,4 C 73 % 1023,4 hPa 0,0 l/m 2,4 km/h S-SO 148 0 min 2,3 UV-I 251 W/m 13,5 C 18,4 C 6,4 km/h
26.09.2017 14:39 18,5 C 73 % 1023,3 hPa 0,0 l/m 7,0 km/h S-SO 148 0 min 2,3 UV-I 260 W/m 13,6 C 18,2 C 12,9 km/h
26.09.2017 14:36 18,7 C 71 % 1023,4 hPa 0,0 l/m 4,1 km/h S-SO 150 0 min 2,3 UV-I 234 W/m 13,3 C 18,7 C 9,7 km/h
26.09.2017 14:33 18,8 C 70 % 1023,3 hPa 0,0 l/m 6,3 km/h S-SO 151 0 min 2,3 UV-I 227 W/m 13,2 C 18,8 C 12,9 km/h
26.09.2017 14:30 18,9 C 70 % 1023,3 hPa 0,0 l/m 8,2 km/h O-SO 117 0 min 2,3 UV-I 209 W/m 13,3 C 18,1 C 17,7 km/h
26.09.2017 14:27 19,0 C 71 % 1023,3 hPa 0,0 l/m 6,3 km/h O-SO 121 0 min 2,4 UV-I 207 W/m 13,6 C 19,0 C 11,3 km/h
26.09.2017 14:24 19,0 C 69 % 1023,4 hPa 0,0 l/m 9,4 km/h S 179 3 min 3,1 UV-I 482 W/m 13,2 C 17,8 C 19,3 km/h
26.09.2017 14:21 19,2 C 68 % 1023,4 hPa 0,0 l/m 7,6 km/h SO 131 3 min 3,2 UV-I 366 W/m 13,1 C 18,7 C 17,7 km/h
26.09.2017 14:18 19,3 C 68 % 1023,4 hPa 0,0 l/m 11,3 km/h SO 135 0 min 2,8 UV-I 260 W/m 13,2 C 17,4 C 19,3 km/h
26.09.2017 14:15 19,3 C 68 % 1023,4 hPa 0,0 l/m 10,1 km/h S-SO 156 3 min 3,6 UV-I 619 W/m 13,2 C 17,8 C 19,3 km/h
26.09.2017 14:12 19,3 C 71 % 1023,4 hPa 0,0 l/m 6,3 km/h SO 134 3 min 3,6 UV-I 626 W/m 13,9 C 19,3 C 16,1 km/h
26.09.2017 14:09 19,2 C 71 % 1023,4 hPa 0,0 l/m 7,1 km/h S-SO 165 3 min 3,6 UV-I 622 W/m 13,8 C 18,9 C 16,1 km/h
26.09.2017 14:06 19,2 C 70 % 1023,4 hPa 0,0 l/m 10,6 km/h S 173 3 min 3,7 UV-I 608 W/m 13,6 C 17,6 C 20,9 km/h
26.09.2017 14:03 19,1 C 72 % 1023,4 hPa 0,0 l/m 9,7 km/h S-SO 153 3 min 3,7 UV-I 631 W/m 13,9 C 17,8 C 14,5 km/h
26.09.2017 14:00 18,9 C 72 % 1023,5 hPa 0,0 l/m 8,3 km/h SO 140 3 min 3,7 UV-I 582 W/m 13,7 C 18,1 C 14,5 km/h
26.09.2017 13:57 18,8 C 72 % 1023,4 hPa 0,0 l/m 3,6 km/h SO 143 3 min 3,8 UV-I 629 W/m 13,6 C 18,8 C 11,3 km/h
26.09.2017 13:54 18,8 C 71 % 1023,5 hPa 0,0 l/m 6,0 km/h SO 143 0 min 3,8 UV-I 230 W/m 13,4 C 18,8 C 12,9 km/h
26.09.2017 13:51 18,8 C 72 % 1023,5 hPa 0,0 l/m 8,4 km/h SO 124 3 min 3,9 UV-I 619 W/m 13,6 C 17,9 C 14,5 km/h
26.09.2017 13:48 18,6 C 75 % 1023,5 hPa 0,0 l/m 3,5 km/h S 169 3 min 3,8 UV-I 612 W/m 14,1 C 18,6 C 8,0 km/h
26.09.2017 13:45 18,4 C 74 % 1023,6 hPa 0,0 l/m 5,4 km/h S 182 3 min 3,9 UV-I 624 W/m 13,7 C 18,4 C 11,3 km/h
26.09.2017 13:42 18,4 C 72 % 1023,6 hPa 0,0 l/m 5,1 km/h S 176 3 min 3,9 UV-I 413 W/m 13,3 C 18,4 C 11,3 km/h
26.09.2017 13:39 18,5 C 72 % 1023,6 hPa 0,0 l/m 9,8 km/h SO 142 3 min 3,6 UV-I 533 W/m 13,4 C 17,1 C 19,3 km/h
26.09.2017 13:36 18,6 C 73 % 1023,6 hPa 0,0 l/m 5,9 km/h S-SO 165 0 min 3,4 UV-I 278 W/m 13,7 C 18,6 C 12,9 km/h
26.09.2017 13:33 18,5 C 72 % 1023,6 hPa 0,0 l/m 12,5 km/h S-SO 160 3 min 4,0 UV-I 626 W/m 13,4 C 16,1 C 20,9 km/h
26.09.2017 13:30 18,4 C 74 % 1023,6 hPa 0,0 l/m 5,9 km/h S-SO 157 3 min 4,0 UV-I 622 W/m 13,7 C 18,4 C 20,9 km/h
26.09.2017 13:27 18,3 C 73 % 1023,6 hPa 0,0 l/m 5,5 km/h SO 142 3 min 4,1 UV-I 636 W/m 13,4 C 18,3 C 12,9 km/h
26.09.2017 13:24 18,1 C 74 % 1023,7 hPa 0,0 l/m 6,8 km/h S 171 3 min 4,3 UV-I 659 W/m 13,4 C 17,9 C 12,9 km/h
26.09.2017 13:21 17,9 C 75 % 1023,7 hPa 0,0 l/m 7,4 km/h SO 127 3 min 4,4 UV-I 700 W/m 13,4 C 17,4 C 14,5 km/h
26.09.2017 13:18 17,6 C 77 % 1023,7 hPa 0,0 l/m 6,3 km/h S 182 3 min 4,4 UV-I 726 W/m 13,5 C 17,6 C 14,5 km/h
26.09.2017 13:15 17,3 C 78 % 1023,7 hPa 0,0 l/m 5,8 km/h S-SO 154 3 min 4,5 UV-I 779 W/m 13,4 C 17,3 C 11,3 km/h
26.09.2017 13:12 17,1 C 80 % 1023,8 hPa 0,0 l/m 3,8 km/h SO 136 3 min 3,8 UV-I 357 W/m 13,6 C 17,1 C 9,7 km/h
26.09.2017 13:09 16,9 C 80 % 1023,9 hPa 0,0 l/m 2,5 km/h SO 132 3 min 3,1 UV-I 459 W/m 13,4 C 16,9 C 8,0 km/h
26.09.2017 13:06 16,9 C 79 % 1023,9 hPa 0,0 l/m 3,4 km/h SO 132 0 min 2,9 UV-I 313 W/m 13,2 C 16,9 C 8,0 km/h
26.09.2017 13:03 16,8 C 79 % 1023,9 hPa 0,0 l/m 8,9 km/h SO 128 0 min 2,9 UV-I 323 W/m 13,1 C 15,6 C 16,1 km/h
26.09.2017 13:00 16,7 C 79 % 1023,9 hPa 0,0 l/m 7,8 km/h S 175 3 min 3,4 UV-I 443 W/m 13,0 C 16,0 C 12,9 km/h
26.09.2017 12:57 16,7 C 80 % 1023,9 hPa 0,0 l/m 5,4 km/h S-SO 152 3 min 3,2 UV-I 397 W/m 13,2 C 16,7 C 12,9 km/h
26.09.2017 12:54 16,6 C 81 % 1023,9 hPa 0,0 l/m 3,6 km/h SO 146 3 min 3,2 UV-I 431 W/m 13,3 C 16,6 C 8,0 km/h
26.09.2017 12:51 16,5 C 80 % 1023,9 hPa 0,0 l/m 4,2 km/h S-SO 150 3 min 2,9 UV-I 374 W/m 13,0 C 16,5 C 8,0 km/h
26.09.2017 12:48 16,4 C 80 % 1023,9 hPa 0,0 l/m 7,6 km/h S-SO 153 3 min 2,8 UV-I 369 W/m 12,9 C 15,8 C 12,9 km/h
26.09.2017 12:45 16,3 C 80 % 1023,9 hPa 0,0 l/m 8,5 km/h S-SO 156 3 min 2,8 UV-I 360 W/m 12,8 C 15,2 C 14,5 km/h
26.09.2017 12:42 16,3 C 80 % 1023,9 hPa 0,0 l/m 6,0 km/h S-SO 155 0 min 2,7 UV-I 348 W/m 12,8 C 16,3 C 14,5 km/h
26.09.2017 12:39 16,3 C 81 % 1023,8 hPa 0,0 l/m 7,1 km/h SO 132 0 min 2,7 UV-I 327 W/m 13,0 C 15,9 C 16,1 km/h
26.09.2017 12:36 16,3 C 81 % 1023,8 hPa 0,0 l/m 3,2 km/h S-SO 150 0 min 2,7 UV-I 323 W/m 13,0 C 16,3 C 8,0 km/h
26.09.2017 12:33 16,3 C 81 % 1023,9 hPa 0,0 l/m 4,0 km/h SO 132 0 min 2,6 UV-I 301 W/m 13,0 C 16,3 C 8,0 km/h
26.09.2017 12:30 16,3 C 81 % 1023,8 hPa 0,0 l/m 4,2 km/h SO 128 0 min 2,5 UV-I 276 W/m 13,0 C 16,3 C 9,7 km/h
26.09.2017 12:27 16,3 C 81 % 1023,9 hPa 0,0 l/m 1,5 km/h O-SO 113 0 min 2,6 UV-I 292 W/m 13,0 C 16,3 C 6,4 km/h
26.09.2017 12:24 16,3 C 81 % 1023,9 hPa 0,0 l/m 3,5 km/h O-SO 113 0 min 2,7 UV-I 309 W/m 13,0 C 16,3 C 8,0 km/h
26.09.2017 12:21 16,3 C 82 % 1023,8 hPa 0,0 l/m 5,9 km/h O-SO 114 0 min 2,7 UV-I 318 W/m 13,2 C 16,3 C 9,7 km/h
26.09.2017 12:18 16,2 C 81 % 1023,8 hPa 0,0 l/m 4,1 km/h O-SO 113 0 min 2,8 UV-I 315 W/m 12,9 C 16,2 C 11,3 km/h
26.09.2017 12:15 16,2 C 80 % 1023,8 hPa 0,0 l/m 8,7 km/h O-SO 115 0 min 2,9 UV-I 338 W/m 12,7 C 15,0 C 11,3 km/h
26.09.2017 12:12 16,2 C 82 % 1023,8 hPa 0,0 l/m 4,4 km/h SO 128 3 min 3,2 UV-I 418 W/m 13,1 C 16,2 C 11,3 km/h
26.09.2017 12:09 16,2 C 82 % 1023,8 hPa 0,0 l/m 1,6 km/h SO 133 3 min 3,2 UV-I 432 W/m 13,1 C 16,2 C 6,4 km/h
26.09.2017 12:06 16,1 C 83 % 1023,8 hPa 0,0 l/m 5,4 km/h SO 133 3 min 3,1 UV-I 418 W/m 13,2 C 16,1 C 11,3 km/h
26.09.2017 12:03 16,0 C 83 % 1023,8 hPa 0,0 l/m 4,1 km/h SO 136 3 min 2,9 UV-I 422 W/m 13,1 C 16,0 C 8,0 km/h
26.09.2017 12:00 15,9 C 84 % 1023,9 hPa 0,0 l/m 4,1 km/h SO 136 3 min 2,8 UV-I 362 W/m 13,2 C 15,9 C 9,7 km/h
26.09.2017 11:57 15,8 C 84 % 1023,9 hPa 0,0 l/m 5,1 km/h SO 138 3 min 2,8 UV-I 364 W/m 13,1 C 15,8 C 8,0 km/h
26.09.2017 11:54 15,7 C 84 % 1023,9 hPa 0,0 l/m 2,6 km/h SO 140 3 min 2,7 UV-I 352 W/m 13,0 C 15,7 C 8,0 km/h
26.09.2017 11:51 15,7 C 84 % 1023,9 hPa 0,0 l/m 4,2 km/h SO 143 3 min 2,6 UV-I 348 W/m 13,0 C 15,7 C 8,0 km/h
_ Min-Zeit 00:06 16:09 17:00 - 18:39 - - - - - 23:45 00:06 18:39
Minimum _ 6,3 C 65 % 1021,1 hPa - 0,0 km/h - - - - - 5,4 C 6,3 C 0,0 km/h
_ Max-Zeit 15:42 03:51 10:54 07:33 13:33 - - 17:00 13:15 13:15 15:42 15:42 15:09
Maximum _ 19,6 C 98 % 1023,9 hPa 0,2 l/m 12,5 km/h
S-SO
- - 3 min 4,5 UV-I 779 W/m 14,2 C 19,6 C 22,5 km/h
S-SO
Durchschnitt _ 12,1 C 88 % 1022,6 hPa #0,2 l/m 2,9 km/h S-SO - #3:36 h 2,2 UV-I 278 W/m 9,9 C 11,9 C 6,8 km/h
Schulla EDV